Tracking 19795 objects as of 19-Jul-2019
HD Live streaming from Space Station
objects crossing your sky now

COSMOS 510

Track COSMOS 510 now!
10-day predictions
COSMOS 510 is classified as:


NORAD ID: 6123
Int'l Code: 1972-057G
Perigee: 1,502.6 km
Apogee: 1,516.1 km
Inclination: 74.0 °
Period: 116.0 minutes
Semi major axis: 7880 km
RCS: 0.6741 m2 (medium)
Launch date: July 20, 1972
Source: Commonwealth of Independent States (former USSR) (CIS)
Launch site: PLESETSK MISSILE AND SPACE COMPLEX (PKMTR)
aabbcc
Your satellite tracking list
Your tracking list is empty




NASA's NSSDC Master Catalog

Two Line Element Set (TLE):
1  6123U 72057G   19200.22243623  .00000001  00000-0  12009-3 0  9995
2  6123  74.0282 111.6798 0008513  86.5314  69.9751 12.41035285129251
Source of the keplerian elements: AFSPC